Location: ??????
(38.0131°N, 23.7723°E)
Time: 05:51:00
(UTC+00:00)

Cosmos 1703 - Pass Details

Date: 17 October 2021
Orbit: 521 x 539 km, 82.5° (Epoch: 28 November)

Event Time Altitude Azimuth Distance (km) Brightness Sun altitude
Rises 16:17:44 0° 6° (N) 2,689 6.7 -7.3°
Reaches altitude 10° 16:20:13 10° 20° (NNE) 1,790 5.7 -7.8°
Maximum altitude 16:23:28 24° 76° (ENE) 1,118 4.3 -8.4°
Drops below altitude 10° 16:26:40 10° 132° (SE) 1,769 5.5 -9.1°
Sets 16:29:06 0° 146° (SE) 2,649 6.5 -9.5°
